W6MAF Weather Reports


Display with metric or nautical units.
time (UTC)temp
F
wind
direction
speed
MPH
gust
MPH
rain 1hr
in
rain 24hr
in
rain mn
in
humidity
%
barometer
mb
20260906083506 69 194 12.0 11.0 0.00 0.00 0.00 27
20260906083008 69 198 17.0 16.0 0.00 0.00 0.00 27
20260906082510 69 193 13.0 14.0 0.00 0.00 0.00 27
20260906082012 68 204 17.0 16.0 0.00 0.00 0.00 27
20260906081515 68 186 12.0 13.0 0.00 0.00 0.00 27
20260906081014 67 188 12.0 13.0 0.00 0.00 0.00 26
20260906080516 67 218 8.0 10.0 0.00 0.00 0.00 23
20260906080018 67 217 10.0 13.0 0.00 0.00 0.00 23
20260906075521 68 225 11.0 10.0 0.00 0.00 0.00 23
20260906075023 68 207 11.0 12.0 0.00 0.00 0.00 23
20260906074525 68 200 13.0 12.0 0.00 0.00 0.00 23
20260906074024 68 194 13.0 8.0 0.00 0.00 0.00 23
20260906073527 68 205 12.0 14.0 0.00 0.00 0.00 23
20260906073029 68 208 13.0 15.0 0.00 0.00 0.00 23
20260906072531 68 208 12.0 11.0 0.00 0.00 0.00 24
20260906072034 68 203 11.0 11.0 0.00 0.00 0.00 24
20260906071536 68 208 11.0 12.0 0.00 0.00 0.00 24
20260906071035 68 187 12.0 12.0 0.00 0.00 0.00 23
20260906070537 68 204 11.0 8.0 0.00 0.00 0.00 23
20260906070039 68 224 11.0 7.0 0.00 0.00 0.00 23
20260906065625 69 207 11.0 10.0 0.00 0.00 0.00 24
20260906065542 69 207 11.0 10.0 0.00 0.00 0.00 24
20260906065044 69 214 10.0 11.0 0.00 0.00 0.00 26
20260906064546 69 198 12.0 12.0 0.00 0.00 0.00 26
20260906064045 69 198 9.0 14.0 0.00 0.00 0.00 26
20260906063548 69 176 9.0 13.0 0.00 0.00 0.00 26
20260906062552 69 180 10.0 10.0 0.00 0.00 0.00 26
20260906062055 69 173 9.0 9.0 0.00 0.00 0.00 25
20260906061557 69 193 8.0 9.0 0.00 0.00 0.00 25
20260906061056 69 181 6.0 9.0 0.00 0.00 0.00 24
20260906060733 69 194 7.0 6.0 0.00 0.00 0.00 23
20260906060558 69 194 7.0 6.0 0.00 0.00 0.00 23
20260906060101 69 180 10.0 11.0 0.00 0.00 0.00 23
20260906055603 69 166 7.0 8.0 0.00 0.00 0.00 22
20260906055105 69 176 7.0 10.0 0.00 0.00 0.00 21
20260906054607 69 180 9.0 9.0 0.00 0.00 0.00 20
20260906054107 69 177 10.0 13.0 0.00 0.00 0.00 19
20260906053609 69 193 9.0 8.0 0.00 0.00 0.00 19
20260906053111 69 127 7.0 7.0 0.00 0.00 0.00 18
20260906052613 69 174 9.0 9.0 0.00 0.00 0.00 18
20260906052116 69 166 9.0 10.0 0.00 0.00 0.00 17
20260906051618 69 155 10.0 7.0 0.00 0.00 0.00 16
20260906051117 70 149 10.0 8.0 0.00 0.00 0.00 16
20260906050619 70 176 10.0 10.0 0.00 0.00 0.00 17
20260906050122 70 146 8.0 12.0 0.00 0.00 0.00 16
20260906045624 70 131 6.0 9.0 0.00 0.00 0.00 17
20260906045126 70 146 7.0 10.0 0.00 0.00 0.00 17
20260906044628 70 173 8.0 8.0 0.00 0.00 0.00 17
20260906044128 70 160 8.0 6.0 0.00 0.00 0.00 17
20260906043630 70 170 10.0 9.0 0.00 0.00 0.00 17
20260906043132 71 169 10.0 11.0 0.00 0.00 0.00 18
20260906042634 71 169 11.0 10.0 0.00 0.00 0.00 18
20260906042137 71 170 11.0 11.0 0.00 0.00 0.00 19
20260906041639 71 167 12.0 12.0 0.00 0.00 0.00 19
20260906041138 71 148 10.0 11.0 0.00 0.00 0.00 20
20260906040640 71 159 8.0 10.0 0.00 0.00 0.00 21
20260906040143 71 160 8.0 5.0 0.00 0.00 0.00 22
20260906035645 71 150 7.0 6.0 0.00 0.00 0.00 22
20260906035148 71 131 6.0 8.0 0.00 0.00 0.00 22
20260906034649 72 146 8.0 9.0 0.00 0.00 0.00 22
20260906034149 72 148 4.0 6.0 0.00 0.00 0.00 22
20260906033651 72 149 5.0 7.0 0.00 0.00 0.00 22
20260906033156 72 134 8.0 9.0 0.00 0.00 0.00 22
20260906032655 72 142 7.0 9.0 0.00 0.00 0.00 22
20260906032158 72 160 7.0 0.0 0.00 0.00 0.00 22
20260906031159 72 160 6.0 7.0 0.00 0.00 0.00 21
20260906030702 72 143 7.0 7.0 0.00 0.00 0.00 21
20260906030204 72 135 8.0 6.0 0.00 0.00 0.00 21
20260906025706 72 139 8.0 9.0 0.00 0.00 0.00 21
20260906025208 72 131 6.0 6.0 0.00 0.00 0.00 21
20260906024711 72 149 6.0 6.0 0.00 0.00 0.00 22
20260906024210 0 156 8.0 9.0 0.00 0.00 0.00 22
20260906023712 73 146 8.0 6.0 0.00 0.00 0.00 22
20260906023214 73 181 7.0 6.0 0.00 0.00 0.00 22
20260906022716 73 165 9.0 7.0 0.00 0.00 0.00 23
20260906022219 73 139 6.0 4.0 0.00 0.00 0.00 23
20260906021721 73 181 8.0 7.0 0.00 0.00 0.00 23
20260906021220 74 163 9.0 12.0 0.00 0.00 0.00 23
20260906020722 74 179 12.0 12.0 0.00 0.00 0.00 23
20260906020224 74 160 10.0 10.0 0.00 0.00 0.00 22
20260906015727 74 186 8.0 12.0 0.00 0.00 0.00 21
20260906015229 74 169 9.0 9.0 0.00 0.00 0.00 21
20260906014230 75 183 9.0 8.0 0.00 0.00 0.00 20
20260906013733 75 186 12.0 11.0 0.00 0.00 0.00 19
20260906013235 76 170 11.0 6.0 0.00 0.00 0.00 19
20260906012737 76 176 11.0 9.0 0.00 0.00 0.00 18
20260906012239 76 173 11.0 9.0 0.00 0.00 0.00 19
20260906011742 76 165 12.0 14.0 0.00 0.00 0.00 19
20260906011241 76 195 16.0 15.0 0.00 0.00 0.00 18
20260906010743 77 177 14.0 13.0 0.00 0.00 0.00 18
20260906010245 77 183 11.0 18.0 0.00 0.00 0.00 17
20260906005748 77 211 11.0 11.0 0.00 0.00 0.00 17
20260906004753 78 177 17.0 21.0 0.00 0.00 0.00 16
20260906004251 78 183 14.0 16.0 0.00 0.00 0.00 16
20260906003753 78 170 15.0 19.0 0.00 0.00 0.00 16
20260906003256 78 193 14.0 11.0 0.00 0.00 0.00 15
20260906002758 78 170 15.0 12.0 0.00 0.00 0.00 15
20260906002300 78 194 14.0 14.0 0.00 0.00 0.00 15
20260906001802 79 205 12.0 12.0 0.00 0.00 0.00 14
20260906001301 79 200 12.0 16.0 0.00 0.00 0.00 13
20260906000804 79 179 11.0 11.0 0.00 0.00 0.00 15
20260906000306 79 205 18.0 9.0 0.00 0.00 0.00 14
20260905235808 79 173 19.0 18.0 0.00 0.00 0.00 14
20260905235311 79 205 16.0 21.0 0.00 0.00 0.00 13
20260905234813 80 205 17.0 14.0 0.00 0.00 0.00 13
20260905234312 79 158 15.0 13.0 0.00 0.00 0.00 12
20260905233814 80 198 15.0 20.0 0.00 0.00 0.00 11
20260905233316 80 200 15.0 20.0 0.00 0.00 0.00 11
20260905232819 80 200 14.0 25.0 0.00 0.00 0.00 11
20260905232321 80 210 14.0 17.0 0.00 0.00 0.00 10
20260905231823 80 208 18.0 22.0 0.00 0.00 0.00 10
20260905231322 80 197 20.0 20.0 0.00 0.00 0.00 9
20260905230824 80 187 13.0 22.0 0.00 0.00 0.00 7
20260905230327 80 204 12.0 9.0 0.00 0.00 0.00 7
20260905225829 80 197 20.0 9.0 0.00 0.00 0.00 7
20260905225331 80 210 17.0 19.0 0.00 0.00 0.00 7
20260905224834 80 194 16.0 9.0 0.00 0.00 0.00 6
20260905224333 80 152 21.0 15.0 0.00 0.00 0.00 6
20260905223835 80 176 17.0 14.0 0.00 0.00 0.00 6
20260905223337 80 193 19.0 15.0 0.00 0.00 0.00 6
20260905222839 80 181 14.0 14.0 0.00 0.00 0.00 5
20260905222342 80 174 21.0 14.0 0.00 0.00 0.00 6
20260905221844 81 200 20.0 22.0 0.00 0.00 0.00 6
20260905221343 81 180 18.0 24.0 0.00 0.00 0.00 4
20260905220845 81 167 18.0 20.0 0.00 0.00 0.00 5
20260905220348 81 181 21.0 12.0 0.00 0.00 0.00 5
20260905215850 81 159 17.0 18.0 0.00 0.00 0.00 5
20260905215352 80 172 14.0 14.0 0.00 0.00 0.00 5
20260905214854 80 183 16.0 14.0 0.00 0.00 0.00 5
20260905214353 80 149 13.0 13.0 0.00 0.00 0.00 5
20260905213856 80 203 16.0 12.0 0.00 0.00 0.00 5
20260905213358 80 193 19.0 21.0 0.00 0.00 0.00 5
20260905212900 80 172 19.0 16.0 0.00 0.00 0.00 5
20260905212403 80 181 18.0 10.0 0.00 0.00 0.00 5
20260905211905 80 169 20.0 21.0 0.00 0.00 0.00 5
20260905211405 80 179 17.0 19.0 0.00 0.00 0.00 5
20260905210906 80 143 15.0 16.0 0.00 0.00 0.00 5
20260905210408 80 176 12.0 19.0 0.00 0.00 0.00 5
20260905205911 80 177 19.0 22.0 0.00 0.00 0.00 4
20260905205413 80 167 19.0 22.0 0.00 0.00 0.00 4
20260905204915 80 176 18.0 23.0 0.00 0.00 0.00 4
20260905204414 80 176 12.0 9.0 0.00 0.00 0.00 4
20260905203917 80 148 19.0 15.0 0.00 0.00 0.00 4
20260905203419 80 167 18.0 17.0 0.00 0.00 0.00 4
20260905202921 80 198 19.0 23.0 0.00 0.00 0.00 4
20260905202424 80 183 14.0 17.0 0.00 0.00 0.00 4
20260905201926 80 162 20.0 20.0 0.00 0.00 0.00 3
20260905201425 80 169 17.0 18.0 0.00 0.00 0.00 4
20260905200927 80 159 16.0 20.0 0.00 0.00 0.00 4
20260905200429 80 193 19.0 11.0 0.00 0.00 0.00 4
20260905195932 80 210 19.0 20.0 0.00 0.00 0.00 4
20260905195434 80 193 15.0 11.0 0.00 0.00 0.00 4
20260905194435 80 158 12.0 21.0 0.00 0.00 0.00 4
20260905193938 79 187 16.0 16.0 0.00 0.00 0.00 4
20260905193440 79 194 13.0 6.0 0.00 0.00 0.00 4
20260905192942 79 198 13.0 17.0 0.00 0.00 0.00 4
20260905192445 79 173 15.0 17.0 0.00 0.00 0.00 4
20260905191947 78 176 14.0 7.0 0.00 0.00 0.00 4
20260905191446 78 186 19.0 15.0 0.00 0.00 0.00 5
20260905190948 78 159 18.0 13.0 0.00 0.00 0.00 5
20260905190451 77 176 19.0 18.0 0.00 0.00 0.00 5
20260905185953 77 165 19.0 19.0 0.00 0.00 0.00 5
20260905185455 77 180 19.0 17.0 0.00 0.00 0.00 5
20260905184957 77 180 23.0 23.0 0.00 0.00 0.00 5
20260905184457 77 155 19.0 17.0 0.00 0.00 0.00 5
20260905183959 77 158 22.0 23.0 0.00 0.00 0.00 5
20260905183501 77 180 11.0 14.0 0.00 0.00 0.00 5
20260905183004 77 142 13.0 14.0 0.00 0.00 0.00 5
20260905182506 76 188 20.0 17.0 0.00 0.00 0.00 5
20260905182008 76 193 17.0 9.0 0.00 0.00 0.00 5
20260905181507 76 159 19.0 15.0 0.00 0.00 0.00 5
20260905181009 76 162 15.0 18.0 0.00 0.00 0.00 6
20260905180014 75 158 13.0 15.0 0.00 0.00 0.00 6
20260905175516 75 172 15.0 16.0 0.00 0.00 0.00 6
20260905175019 75 162 17.0 20.0 0.00 0.00 0.00 6
20260905174518 75 167 12.0 16.0 0.00 0.00 0.00 6
20260905174020 74 167 15.0 12.0 0.00 0.00 0.00 6
20260905173522 74 170 20.0 21.0 0.00 0.00 0.00 6
20260905173025 74 149 21.0 14.0 0.00 0.00 0.00 6
20260905172527 74 172 19.0 16.0 0.00 0.00 0.00 6
20260905172029 74 177 17.0 19.0 0.00 0.00 0.00 6
20260905171528 74 162 18.0 18.0 0.00 0.00 0.00 6
20260905170533 74 160 15.0 12.0 0.00 0.00 0.00 6
20260905170035 74 193 20.0 13.0 0.00 0.00 0.00 6
20260905165040 73 174 14.0 10.0 0.00 0.00 0.00 6
20260905164539 73 179 16.0 19.0 0.00 0.00 0.00 6
20260905164041 73 170 18.0 12.0 0.00 0.00 0.00 6
20260905163544 72 187 16.0 17.0 0.00 0.00 0.00 6
20260905163046 72 184 17.0 22.0 0.00 0.00 0.00 7
20260905162548 72 191 18.0 17.0 0.00 0.00 0.00 7
20260905162051 72 183 15.0 15.0 0.00 0.00 0.00 7
20260905161550 72 204 15.0 11.0 0.00 0.00 0.00 8
20260905161052 71 191 11.0 11.0 0.00 0.00 0.00 8
20260905160555 71 162 18.0 13.0 0.00 0.00 0.00 9
20260905160057 71 176 17.0 15.0 0.00 0.00 0.00 9
20260905155559 70 184 14.0 16.0 0.00 0.00 0.00 10
20260905155102 70 179 15.0 19.0 0.00 0.00 0.00 11
20260905154601 69 152 14.0 11.0 0.00 0.00 0.00 12
20260905154103 69 162 17.0 11.0 0.00 0.00 0.00 12
20260905153606 69 180 12.0 15.0 0.00 0.00 0.00 13
20260905153108 68 180 14.0 8.0 0.00 0.00 0.00 13
20260905152610 68 193 14.0 16.0 0.00 0.00 0.00 14
20260905152112 68 177 14.0 15.0 0.00 0.00 0.00 15
20260905151611 67 224 12.0 14.0 0.00 0.00 0.00 16
20260905151114 66 207 14.0 10.0 0.00 0.00 0.00 17
20260905150616 65 201 10.0 10.0 0.00 0.00 0.00 19
20260905150118 64 228 7.0 4.0 0.00 0.00 0.00 21
20260905145621 63 208 10.0 7.0 0.00 0.00 0.00 21
20260905145123 62 193 11.0 12.0 0.00 0.00 0.00 22
20260905144622 62 212 10.0 13.0 0.00 0.00 0.00 23
20260905144124 61 226 12.0 9.0 0.00 0.00 0.00 24
20260905143129 60 203 9.0 13.0 0.00 0.00 0.00 26
20260905142631 60 226 10.0 7.0 0.00 0.00 0.00 26
20260905142134 59 207 11.0 12.0 0.00 0.00 0.00 27
20260905141633 58 200 10.0 8.0 0.00 0.00 0.00 28
20260905141135 58 214 10.0 13.0 0.00 0.00 0.00 28
20260905140637 57 219 9.0 9.0 0.00 0.00 0.00 29
20260905140140 57 218 10.0 11.0 0.00 0.00 0.00 30
20260905135642 57 210 11.0 10.0 0.00 0.00 0.00 30
20260905135144 56 221 11.0 12.0 0.00 0.00 0.00 31
20260905134644 56 226 11.0 13.0 0.00 0.00 0.00 32
20260905134146 56 204 10.0 12.0 0.00 0.00 0.00 33
20260905133648 56 214 9.0 11.0 0.00 0.00 0.00 34
20260905133151 56 225 11.0 11.0 0.00 0.00 0.00 35
20260905132653 56 208 9.0 9.0 0.00 0.00 0.00 35
20260905132155 56 205 10.0 8.0 0.00 0.00 0.00 36
20260905131654 56 194 10.0 5.0 0.00 0.00 0.00 36
20260905131157 56 210 9.0 7.0 0.00 0.00 0.00 37
20260905130659 56 224 8.0 9.0 0.00 0.00 0.00 38
20260905130201 56 214 9.0 9.0 0.00 0.00 0.00 38
20260905125703 56 224 9.0 9.0 0.00 0.00 0.00 39
20260905125206 56 245 11.0 8.0 0.00 0.00 0.00 40
20260905124705 56 201 8.0 7.0 0.00 0.00 0.00 40
20260905124207 56 225 8.0 12.0 0.00 0.00 0.00 41
20260905123709 56 197 10.0 10.0 0.00 0.00 0.00 41
20260905123212 56 211 11.0 10.0 0.00 0.00 0.00 42
20260905122714 56 211 10.0 7.0 0.00 0.00 0.00 42
20260905122216 56 232 9.0 7.0 0.00 0.00 0.00 42
20260905121716 56 214 10.0 12.0 0.00 0.00 0.00 42
20260905121218 56 228 9.0 9.0 0.00 0.00 0.00 43
20260905120720 56 217 10.0 10.0 0.00 0.00 0.00 43
20260905120222 56 218 9.0 9.0 0.00 0.00 0.00 43
20260905115227 56 211 9.0 10.0 0.00 0.00 0.00 43
20260905114726 56 232 7.0 7.0 0.00 0.00 0.00 43
20260905114229 56 232 10.0 11.0 0.00 0.00 0.00 43
20260905113731 57 221 9.0 9.0 0.00 0.00 0.00 43
20260905113233 57 212 9.0 11.0 0.00 0.00 0.00 43
20260905112736 57 245 10.0 8.0 0.00 0.00 0.00 43
20260905112238 57 228 11.0 10.0 0.00 0.00 0.00 42
20260905111737 57 211 7.0 11.0 0.00 0.00 0.00 42
20260905111239 57 245 10.0 12.0 0.00 0.00 0.00 42
20260905110742 57 210 9.0 8.0 0.00 0.00 0.00 42
20260905110244 57 221 11.0 15.0 0.00 0.00 0.00 42
20260905105746 57 203 11.0 9.0 0.00 0.00 0.00 42
20260905105248 57 217 10.0 11.0 0.00 0.00 0.00 42
20260905104250 57 224 8.0 7.0 0.00 0.00 0.00 42
20260905103752 57 232 8.0 8.0 0.00 0.00 0.00 41
20260905103255 57 221 11.0 12.0 0.00 0.00 0.00 41
20260905102757 57 211 9.0 8.0 0.00 0.00 0.00 40
20260905101301 57 222 10.0 8.0 0.00 0.00 0.00 39
20260905100803 58 205 10.0 10.0 0.00 0.00 0.00 39
20260905100305 58 224 12.0 15.0 0.00 0.00 0.00 39
20260905095807 58 210 9.0 14.0 0.00 0.00 0.00 38
20260905095310 58 215 13.0 15.0 0.00 0.00 0.00 38
20260905094809 58 201 12.0 14.0 0.00 0.00 0.00 38
20260905094311 58 184 11.0 10.0 0.00 0.00 0.00 37
20260905093814 58 214 10.0 11.0 0.00 0.00 0.00 37
20260905093316 58 198 11.0 8.0 0.00 0.00 0.00 36
20260905092818 58 210 11.0 11.0 0.00 0.00 0.00 36
20260905092320 58 215 12.0 15.0 0.00 0.00 0.00 35
20260905091820 58 179 12.0 12.0 0.00 0.00 0.00 34
20260905091323 0 195 14.0 13.0 0.00 0.00 0.00 34
20260905090824 59 222 13.0 9.0 0.00 0.00 0.00 33
20260905090326 59 201 12.0 13.0 0.00 0.00 0.00 32
20260905085829 59 200 12.0 14.0 0.00 0.00 0.00 31
20260905085332 0 0.0 0.0 0.00 0.00 0.00
20260905084830 59 194 13.0 14.0 0.00 0.00 0.00 32
20260905084333 59 193 10.0 10.0 0.00 0.00 0.00 32
20260905083835 59 204 12.0 14.0 0.00 0.00 0.00 32